Tracking 29090 objects as of 15-Jul-2024
HD Live streaming from Space Station
objects crossing your sky now

COSMOS 1934 DEB

Track COSMOS 1934 DEB now!
10-day predictions


NORAD ID: 21912
Int'l Code: 1988-023C
Perigee: 926.5 km
Apogee: 983.8 km
Inclination: 83.0 °
Period: 104.0 minutes
Semi major axis: 7326 km
RCS: 0.1428 m2 (medium)
Launch date: March 22, 1988
Source: Commonwealth of Independent States (former USSR) (CIS)
Launch site: PLESETSK MISSILE AND SPACE COMPLEX (PKMTR)

Note: This is SATELLITE DEBRIS
Your satellite tracking list
Your tracking list is empty




NASA's NSSDC Master Catalog

Two Line Element Set (TLE):
1 21912U 88023C   24196.89650787  .00000658  00000-0  57043-3 0  9999
2 21912  82.9544 252.3101 0039059  51.1915 124.0915 13.84488865704504
Source of the keplerian elements: AFSPC